Find Kosmos-2532

NORAD ID: 43753 Int'l Des: 2018-097 Owner: VVKOV Country: RU operational
別名: COSMOS 2532 spacetrack COSMOS 2532 (RODNIK-S 18) celestrak Strela-3M 18 satnogs
LEOCIRCULARPOLAR

現在のビュー

3D地球を読み込み中...

About Kosmos-2532

Kosmos-2532 (NORAD 43753) is a satellite launched Nov 30, 2018 by VVKOV of RU. It operates in LEO, CIRCULAR, POLAR orbit with a mass of 280.00 kg.

次回通過

Passes for default location (London). Set your location on the main map for personalized predictions.

高度履歴

Loading altitude history...

軌道要素

1 43753U 18097C 26209.23847352 -.00000022 00000-0 -22871-3 0 9999
2 43753 82.5116 196.6427 0017432 332.1225 27.8919 12.42910792347374
Epoch: Jul 28, 2026 • Age: 8 hours

現在のステータス

高度 1491.3 km
遠地点 / 近地点 N/A
速度 7.12 km/s
衛星直下点 31.31°N, 50.48°E
打ち上げ日 Nov 30, 2018
運用期間 7.6 years
タイプ other

技術仕様

分類 Payload
質量 280.00 kg
乾燥質量 280.00 kg
総質量 280.00 kg
長さ 1.60 m
直径 0.80 m
スパン 7.00 m
形状 Cyl + Ant
製造者 RESH
バスタイプ Strela-3M
フェーズステータス In Orbit
所有者/国 VVKOV/RU

Most Searched